VK3CSJ Weather Reports


time (UTC)temp
C
wind
direction
speed
KPH
gust
KPH
rain 1hr
cm
rain 24hr
cm
rain mn
cm
humidity
%
barometer
mb
20260504050002 18 24 25.7 49.9 0.00 0.00 0.00 59 1009.9
20260504044601 18 293 30.6 49.9 0.00 0.00 0.00 57 1010.0
20260504043055 18 53 30.6 54.7 0.00 0.00 0.00 57 1009.8
20260504041540 18 346 37.0 51.5 0.00 0.00 0.00 57 1010.2
20260504040029 18 350 29.0 51.5 0.00 0.00 0.00 57 1010.2
20260504034521 17 328 30.6 49.9 0.00 0.00 0.00 58 1010.3
20260504033014 18 345 33.8 45.1 0.00 0.00 0.00 57 1010.5
20260504031505 17 5 30.6 49.9 0.00 0.00 0.00 59 1010.6
20260504030055 17 325 30.6 53.1 0.00 0.00 0.00 58 1011.0
20260504024558 17 350 27.4 49.9 0.00 0.00 0.00 60 1011.0
20260504023040 17 308 20.9 46.7 0.00 0.00 0.00 61 1011.1
20260504021522 17 323 14.5 40.2 0.00 0.00 0.00 65 1011.3
20260504020020 17 344 29.0 40.2 0.00 0.00 0.00 61 1011.4
20260504014506 17 336 17.7 43.5 0.00 0.00 0.00 64 1011.6
20260504013046 17 14 20.9 40.2 0.00 0.00 0.00 66 1011.6
20260504011532 17 332 20.9 45.1 0.00 0.00 0.00 66 1011.9
20260504010018 17 46 17.7 38.6 0.00 0.00 0.00 68 1012.1
20260504004509 16 42 12.9 40.2 0.00 0.00 0.00 68 1012.1
20260504003057 17 32 22.5 40.2 0.00 0.00 0.00 68 1012.1
20260504001516 16 351 22.5 37.0 0.00 0.00 0.00 69 1011.8
20260504000010 16 339 27.4 38.6 0.00 0.00 0.00 68 1012.0
20260503234600 16 23 11.3 29.0 0.00 0.00 0.00 69 1011.9
20260503233028 16 342 12.9 30.6 0.00 0.00 0.00 71 1012.1
20260503231508 16 15 9.7 27.4 0.00 0.00 0.00 71 1012.2
20260503230043 15 345 4.8 32.2 0.00 0.00 0.00 74 1012.2
20260503224511 15 355 11.3 29.0 0.00 0.00 0.00 74 1012.2
20260503223100 14 355 11.3 25.7 0.00 0.00 0.00 74 1012.4
20260503223001 14 360 12.9 25.7 0.00 0.00 0.00 75 1012.4
20260503221558 14 349 12.9 24.1 0.00 0.00 0.00 74 1012.3
20260503220046 14 355 14.5 24.1 0.00 0.00 0.00 74 1012.4
20260503214542 14 360 12.9 25.7 0.00 0.00 0.00 74 1012.3
20260503213023 13 360 16.1 27.4 0.00 0.00 0.00 74 1012.2
20260503211516 13 340 6.4 25.7 0.00 0.00 0.00 74 1012.2
20260503210006 13 347 4.8 24.1 0.00 0.00 0.00 75 1012.2
20260503204513 13 348 9.7 19.3 0.00 0.00 0.00 76 1012.1
20260503203019 13 13 6.4 16.1 0.00 0.00 0.00 76 1011.8
20260503201503 13 312 6.4 19.3 0.00 0.00 0.00 76 1011.9
20260503200055 13 327 6.4 17.7 0.00 0.00 0.00 76 1011.9
20260503194557 13 17 6.4 17.7 0.00 0.00 0.00 77 1011.9
20260503193040 13 9 11.3 20.9 0.00 0.00 0.00 77 1012.0
20260503191523 13 342 8.0 20.9 0.00 0.00 0.00 76 1012.3
20260503190018 13 5 4.8 14.5 0.00 0.00 0.00 76 1012.4
20260503184513 13 329 8.0 19.3 0.00 0.00 0.00 77 1012.6
20260503183005 13 17 8.0 19.3 0.00 0.00 0.00 78 1012.5
20260503181603 13 39 8.0 17.7 0.00 0.00 0.00 80 1012.5
20260503180045 13 15 9.7 20.9 0.00 0.00 0.00 81 1012.7
20260503174538 13 5 8.0 19.3 0.00 0.00 0.00 82 1012.8
20260503173036 13 342 9.7 22.5 0.00 0.00 0.00 82 1012.9
20260503171513 13 355 9.7 19.3 0.00 0.00 0.00 82 1012.9
20260503081547 15 297 3.2 6.4 0.00 0.00 0.00 86 1012.2
20260503071503 16 307 11.3 22.5 0.00 0.00 0.00 80 1011.7
20260503070103 17 308 11.3 22.5 0.00 0.00 0.00 81 1011.5
20260503054516 16 328 11.3 19.3 0.00 0.00 0.00 88 1011.6
20260503053006 16 303 16.1 30.6 0.00 0.00 0.00 89 1011.5